When you browse on this site, cookies collect data to enhance your experience and personalize the content and advertising you see.
Visit our Privacy Policy to learn more. By continuing to use the site, you agree to this use of cookies and data.
  • In Hungary
  • List of Countries
  • For 7 days
  • Water Temperature
  • Weather Map
  • News
  • Weather Widgets
  • user-avatar
    Login

    Hourly Weather Himachal Pradesh

    Today, 13 December, Friday

    Time Temperature Precipitation Wind Pressure Humidity
    00:00 -18°C° 1.1 mm 2 mps 396 mmHg 96%
    01:00 -18°C° 1.1 mm 2 mps 396 mmHg 96%
    02:00 -18°C° 1.1 mm 2 mps 395 mmHg 96%
    03:00 -18°C° 2.2 mm 2 mps 395 mmHg 97%
    04:00 -19°C° 2.2 mm 3 mps 395 mmHg 97%
    05:00 -18°C° 0 mm 2 mps 395 mmHg 98%
    06:00 -18°C° 1.5 mm 2 mps 395 mmHg 97%
    07:00 -18°C° 1.5 mm 2 mps 395 mmHg 96%
    08:00 -18°C° 1.5 mm 2 mps 395 mmHg 95%
    09:00 -18°C° 1.4 mm 2 mps 396 mmHg 95%
    10:00 -17°C° 1.4 mm 2 mps 396 mmHg 95%
    11:00 -17°C° 0 mm 2 mps 396 mmHg 95%
    12:00 -18°C° 2 mm 3 mps 396 mmHg 95%
    13:00 -18°C° 2 mm 3 mps 395 mmHg 95%
    14:00 -18°C° 2 mm 3 mps 395 mmHg 96%
    15:00 -19°C° 0.8 mm 3 mps 395 mmHg 96%
    16:00 -18°C° 0.8 mm 2 mps 394 mmHg 97%
    17:00 -19°C° 0 mm 2 mps 394 mmHg 97%
    18:00 -17°C° 0.7 mm 1 mps 394 mmHg 97%
    19:00 -18°C° 0.7 mm 1 mps 394 mmHg 97%
    20:00 -18°C° 0.7 mm 1 mps 395 mmHg 97%
    21:00 -18°C° 1.7 mm 1 mps 395 mmHg 97%
    22:00 -20°C° 1.7 mm 2 mps 395 mmHg 98%
    23:00 -20°C° 1.7 mm 2 mps 395 mmHg 98%

    Tomorrow, 14 December, Saturday

    Time Temperature Precipitation Wind Pressure Humidity
    00:00 -20°C° 1.4 mm 2 mps 396 mmHg 98%
    01:00 -20°C° 1.4 mm 2 mps 396 mmHg 98%
    02:00 -22°C° 1.4 mm 3 mps 396 mmHg 98%
    03:00 -20°C° 1.2 mm 2 mps 396 mmHg 98%
    04:00 -21°C° 1.2 mm 2 mps 395 mmHg 98%
    05:00 -21°C° 1.2 mm 2 mps 395 mmHg 99%
    06:00 -23°C° 0.3 mm 2 mps 395 mmHg 97%
    07:00 -23°C° 0.3 mm 2 mps 395 mmHg 95%
    08:00 -24°C° 0.3 mm 2 mps 395 mmHg 93%
    09:00 -23°C° 0 mm 2 mps 396 mmHg 90%
    10:00 -21°C° 0 mm 2 mps 397 mmHg 86%
    11:00 -19°C° 0 mm 2 mps 398 mmHg 82%
    12:00 -19°C° 0.1 mm 2 mps 398 mmHg 84%
    13:00 -19°C° 0.1 mm 2 mps 398 mmHg 86%
    14:00 -19°C° 0.1 mm 2 mps 397 mmHg 88%
    15:00 -21°C° 0.1 mm 2 mps 396 mmHg 89%
    16:00 -24°C° 0.1 mm 2 mps 394 mmHg 91%
    17:00 -27°C° 0.1 mm 2 mps 392 mmHg 93%
    18:00 -27°C° 0 mm 2 mps 392 mmHg 88%
    19:00 -29°C° 0 mm 3 mps 393 mmHg 83%
    20:00 -29°C° 0 mm 3 mps 393 mmHg 77%
    21:00 -29°C° 0 mm 3 mps 393 mmHg 79%
    22:00 -29°C° 0 mm 3 mps 394 mmHg 80%
    23:00 -29°C° 0 mm 3 mps 394 mmHg 81%

    Day after tomorrow, 15 December, Sunday

    Time Temperature Precipitation Wind Pressure Humidity
    00:00 -29°C° 0 mm 3 mps 394 mmHg 82%
    01:00 -30°C° 0 mm 3 mps 393 mmHg 82%
    02:00 -30°C° 0 mm 3 mps 393 mmHg 83%
    03:00 -30°C° 0 mm 3 mps 393 mmHg 83%
    04:00 -30°C° 0 mm 3 mps 392 mmHg 83%
    05:00 -31°C° 0 mm 3 mps 392 mmHg 83%
    06:00 -30°C° 0 mm 3 mps 393 mmHg 81%
    07:00 -29°C° 0 mm 3 mps 394 mmHg 78%
    08:00 -29°C° 0 mm 3 mps 395 mmHg 76%
    09:00 -25°C° 0 mm 3 mps 396 mmHg 75%
    10:00 -21°C° 0 mm 2 mps 398 mmHg 73%
    11:00 -19°C° 0 mm 2 mps 399 mmHg 72%
    12:00 -19°C° 0 mm 2 mps 399 mmHg 76%
    13:00 -19°C° 0 mm 2 mps 398 mmHg 80%
    14:00 -19°C° 0 mm 2 mps 398 mmHg 85%
    15:00 -21°C° 0 mm 2 mps 396 mmHg 87%
    16:00 -24°C° 0 mm 2 mps 394 mmHg 89%
    17:00 -27°C° 0 mm 2 mps 393 mmHg 91%
    18:00 -29°C° 0 mm 3 mps 393 mmHg 80%
    19:00 -30°C° 0 mm 3 mps 393 mmHg 69%
    20:00 -30°C° 0 mm 3 mps 393 mmHg 58%
    21:00 -30°C° 0 mm 3 mps 393 mmHg 50%
    22:00 -30°C° 0 mm 3 mps 393 mmHg 43%
    23:00 -31°C° 0 mm 3 mps 393 mmHg 35%

    16 December, Monday

    Time Temperature Precipitation Wind Pressure Humidity
    00:00 -31°C° 0 mm 3 mps 393 mmHg 34%
    01:00 -32°C° 0 mm 4 mps 393 mmHg 33%
    02:00 -32°C° 0 mm 4 mps 393 mmHg 32%
    03:00 -32°C° 0 mm 4 mps 393 mmHg 32%
    04:00 -32°C° 0 mm 4 mps 393 mmHg 31%
    05:00 -31°C° 0 mm 4 mps 393 mmHg 31%
    06:00 -30°C° 0 mm 3 mps 394 mmHg 32%
    07:00 -29°C° 0 mm 3 mps 395 mmHg 34%
    08:00 -27°C° 0 mm 3 mps 396 mmHg 35%
    09:00 -24°C° 0 mm 3 mps 398 mmHg 40%
    10:00 -20°C° 0 mm 2 mps 399 mmHg 44%
    11:00 -18°C° 0 mm 2 mps 401 mmHg 49%
    12:00 -18°C° 0 mm 2 mps 401 mmHg 55%
    13:00 -18°C° 0 mm 2 mps 400 mmHg 61%
    14:00 -18°C° 0 mm 2 mps 400 mmHg 68%
    15:00 -20°C° 0 mm 2 mps 398 mmHg 72%
    16:00 -24°C° 0 mm 2 mps 395 mmHg 76%
    17:00 -26°C° 0 mm 2 mps 393 mmHg 80%
    18:00 -29°C° 0 mm 3 mps 394 mmHg 64%
    19:00 -29°C° 0 mm 3 mps 394 mmHg 48%
    20:00 -30°C° 0 mm 3 mps 394 mmHg 32%
    21:00 -30°C° 0 mm 3 mps 394 mmHg 30%
    22:00 -30°C° 0 mm 3 mps 394 mmHg 28%
    23:00 -30°C° 0 mm 3 mps 394 mmHg 25%

    17 December, Tuesday

    Time Temperature Precipitation Wind Pressure Humidity
    00:00 -30°C° 0 mm 3 mps 394 mmHg 25%
    01:00 -30°C° 0 mm 3 mps 394 mmHg 25%
    02:00 -30°C° 0 mm 3 mps 394 mmHg 25%
    03:00 -30°C° 0 mm 3 mps 394 mmHg 26%
    04:00 -31°C° 0 mm 4 mps 394 mmHg 26%
    05:00 -31°C° 0 mm 4 mps 394 mmHg 26%
    06:00 -29°C° 0 mm 3 mps 395 mmHg 28%
    07:00 -27°C° 0 mm 3 mps 396 mmHg 30%
    08:00 -26°C° 0 mm 3 mps 397 mmHg 32%
    09:00 -23°C° 0 mm 2 mps 399 mmHg 37%
    10:00 -19°C° 0 mm 2 mps 401 mmHg 41%
    11:00 -14°C° 0 mm 1 mps 403 mmHg 45%
    12:00 -14°C° 0 mm 1 mps 402 mmHg 51%
    13:00 -14°C° 0 mm 1 mps 402 mmHg 57%
    14:00 -14°C° 0 mm 1 mps 402 mmHg 63%
    15:00 -19°C° 0 mm 2 mps 400 mmHg 58%
    16:00 -21°C° 0 mm 2 mps 397 mmHg 52%
    17:00 -25°C° 0 mm 3 mps 395 mmHg 47%
    18:00 -25°C° 0 mm 3 mps 396 mmHg 40%
    19:00 -25°C° 0 mm 3 mps 396 mmHg 32%
    20:00 -25°C° 0 mm 3 mps 397 mmHg 25%
    21:00 -25°C° 0 mm 3 mps 397 mmHg 25%
    22:00 -24°C° 0 mm 3 mps 398 mmHg 25%
    23:00 -24°C° 0 mm 3 mps 398 mmHg 24%

    18 December, Wednesday

    Time Temperature Precipitation Wind Pressure Humidity
    00:00 -24°C° 0 mm 3 mps 398 mmHg 26%
    01:00 -24°C° 0 mm 3 mps 398 mmHg 27%
    02:00 -24°C° 0 mm 3 mps 397 mmHg 29%
    03:00 -23°C° 0 mm 3 mps 398 mmHg 30%
    04:00 -23°C° 0 mm 3 mps 398 mmHg 31%
    05:00 -22°C° 0 mm 3 mps 398 mmHg 32%
    06:00 -21°C° 0 mm 3 mps 399 mmHg 35%
    07:00 -19°C° 0 mm 3 mps 400 mmHg 37%
    08:00 -17°C° 0 mm 2 mps 401 mmHg 39%
    09:00 -15°C° 0 mm 2 mps 403 mmHg 46%
    10:00 -13°C° 0 mm 2 mps 404 mmHg 53%
    11:00 -10°C° 0 mm 2 mps 405 mmHg 60%
    12:00 -12°C° 0 mm 2 mps 404 mmHg 63%
    13:00 -12°C° 0 mm 2 mps 404 mmHg 65%
    14:00 -12°C° 0 mm 2 mps 403 mmHg 68%
    15:00 -11°C° 0 mm 1 mps 402 mmHg 72%
    16:00 -13°C° 0 mm 1 mps 401 mmHg 77%
    17:00 -14°C° 0 mm 1 mps 399 mmHg 81%
    18:00 -14°C° 0 mm 1 mps 399 mmHg 81%
    19:00 -16°C° 0 mm 2 mps 400 mmHg 80%
    20:00 -16°C° 0 mm 2 mps 400 mmHg 80%
    21:00 -17°C° 0.1 mm 2 mps 400 mmHg 81%
    22:00 -17°C° 0.1 mm 2 mps 400 mmHg 82%
    23:00 -18°C° 0.1 mm 3 mps 399 mmHg 84%
    Show more